• In Germany
  • List of Countries
  • For 7 days
  • Water Temperature
  • Satellite Maps
  • Weather Map
  • Weather Widgets
  • user-avatar
    Login

    Hourly Weather Bregenz

    Today, 19 October, Friday

    Time Temperature Precipitation Wind Pressure Humidity
    00:00 +7°C° 0 mm 1 mps 647 mmHg 91%
    01:00 +6°C° 0 mm 2 mps 647 mmHg 89%
    02:00 +6°C° 0 mm 2 mps 647 mmHg 88%
    03:00 +7°C° 0 mm 1 mps 647 mmHg 88%
    04:00 +6°C° 0 mm 1 mps 647 mmHg 87%
    05:00 +6°C° 0 mm 1 mps 647 mmHg 87%
    06:00 +6°C° 0 mm 1 mps 647 mmHg 87%
    07:00 +6°C° 0 mm 1 mps 647 mmHg 87%
    08:00 +8°C° 0 mm 1 mps 648 mmHg 80%
    09:00 +10°C° 0 mm 1 mps 649 mmHg 74%
    10:00 +13°C° 0 mm 1 mps 649 mmHg 67%
    11:00 +13°C° 0 mm 1 mps 650 mmHg 64%
    12:00 +14°C° 0 mm 2 mps 650 mmHg 62%
    13:00 +14°C° 0 mm 2 mps 650 mmHg 60%
    14:00 +13°C° 0 mm 2 mps 650 mmHg 64%
    15:00 +13°C° 0 mm 2 mps 649 mmHg 67%
    16:00 +13°C° 0 mm 2 mps 649 mmHg 71%
    17:00 +11°C° 0 mm 1 mps 649 mmHg 79%
    18:00 +9°C° 0 mm 1 mps 649 mmHg 86%
    19:00 +6°C° 0 mm 0 mps 649 mmHg 94%
    20:00 +7°C° 0 mm 1 mps 649 mmHg 94%
    21:00 +6°C° 0 mm 1 mps 649 mmHg 93%
    22:00 +6°C° 0 mm 1 mps 649 mmHg 93%
    23:00 +6°C° 0 mm 1 mps 649 mmHg 92%

    Tomorrow, 20 October, Saturday

    Time Temperature Precipitation Wind Pressure Humidity
    00:00 +6°C° 0 mm 1 mps 649 mmHg 92%
    01:00 +5°C° 0 mm 1 mps 649 mmHg 91%
    02:00 +4°C° 0 mm 0 mps 649 mmHg 91%
    03:00 +4°C° 0 mm 0 mps 649 mmHg 91%
    04:00 +4°C° 0 mm 0 mps 649 mmHg 90%
    05:00 +4°C° 0 mm 0 mps 650 mmHg 90%
    06:00 +4°C° 0 mm 0 mps 650 mmHg 90%
    07:00 +4°C° 0 mm 0 mps 650 mmHg 90%
    08:00 +7°C° 0 mm 1 mps 651 mmHg 83%
    09:00 +9°C° 0 mm 1 mps 652 mmHg 76%
    10:00 +11°C° 0 mm 1 mps 653 mmHg 69%
    11:00 +12°C° 0 mm 1 mps 653 mmHg 66%
    12:00 +13°C° 0 mm 2 mps 653 mmHg 62%
    13:00 +14°C° 0 mm 2 mps 653 mmHg 59%
    14:00 +13°C° 0 mm 2 mps 653 mmHg 64%
    15:00 +12°C° 0 mm 2 mps 653 mmHg 68%
    16:00 +12°C° 0 mm 2 mps 653 mmHg 73%
    17:00 +9°C° 0 mm 2 mps 652 mmHg 80%
    18:00 +8°C° 0 mm 1 mps 652 mmHg 88%
    19:00 +6°C° 0 mm 1 mps 652 mmHg 95%
    20:00 +6°C° 0 mm 1 mps 652 mmHg 95%
    21:00 +6°C° 0 mm 1 mps 652 mmHg 95%
    22:00 +5°C° 0 mm 1 mps 652 mmHg 95%
    23:00 +5°C° 0 mm 1 mps 652 mmHg 94%

    Day after tomorrow, 21 October, Sunday

    Time Temperature Precipitation Wind Pressure Humidity
    00:00 +5°C° 0 mm 1 mps 651 mmHg 93%
    01:00 +4°C° 0 mm 1 mps 651 mmHg 92%
    02:00 +4°C° 0 mm 1 mps 651 mmHg 91%
    03:00 +4°C° 0 mm 1 mps 651 mmHg 91%
    04:00 +3°C° 0 mm 1 mps 650 mmHg 91%
    05:00 +3°C° 0 mm 1 mps 650 mmHg 91%
    06:00 +3°C° 0 mm 1 mps 650 mmHg 91%
    07:00 +3°C° 0 mm 1 mps 650 mmHg 91%
    08:00 +5°C° 0 mm 1 mps 651 mmHg 82%
    09:00 +7°C° 0 mm 1 mps 651 mmHg 74%
    10:00 +10°C° 0 mm 1 mps 651 mmHg 65%
    11:00 +9°C° 0 mm 2 mps 651 mmHg 62%
    12:00 +10°C° 0 mm 2 mps 651 mmHg 59%
    13:00 +11°C° 0 mm 3 mps 651 mmHg 55%
    14:00 +10°C° 0 mm 3 mps 651 mmHg 59%
    15:00 +10°C° 0 mm 3 mps 650 mmHg 64%
    16:00 +9°C° 0 mm 3 mps 650 mmHg 68%
    17:00 +7°C° 0 mm 2 mps 650 mmHg 76%
    18:00 +5°C° 0 mm 2 mps 650 mmHg 84%
    19:00 +4°C° 0 mm 1 mps 649 mmHg 92%
    20:00 +4°C° 0 mm 1 mps 649 mmHg 92%
    21:00 +3°C° 0 mm 1 mps 649 mmHg 92%
    22:00 +3°C° 0 mm 1 mps 649 mmHg 93%
    23:00 +3°C° 0 mm 1 mps 649 mmHg 91%

    22 October, Monday

    Time Temperature Precipitation Wind Pressure Humidity
    00:00 +2°C° 0 mm 1 mps 649 mmHg 89%
    01:00 +2°C° 0 mm 1 mps 649 mmHg 87%
    02:00 +1°C° 0 mm 1 mps 648 mmHg 85%
    03:00 +1°C° 0 mm 1 mps 648 mmHg 82%
    04:00 +1°C° 0 mm 1 mps 648 mmHg 80%
    05:00 +1°C° 0 mm 1 mps 648 mmHg 79%
    06:00 +1°C° 0 mm 1 mps 648 mmHg 78%
    07:00 +1°C° 0 mm 1 mps 648 mmHg 77%
    08:00 +3°C° 0 mm 1 mps 649 mmHg 71%
    09:00 +5°C° 0 mm 1 mps 650 mmHg 65%
    10:00 +7°C° 0 mm 1 mps 650 mmHg 58%
    11:00 +7°C° 0 mm 2 mps 650 mmHg 56%
    12:00 +7°C° 0 mm 2 mps 650 mmHg 53%
    13:00 +8°C° 0 mm 3 mps 650 mmHg 51%
    14:00 +8°C° 0 mm 2 mps 650 mmHg 55%
    15:00 +7°C° 0 mm 2 mps 650 mmHg 60%
    16:00 +7°C° 0 mm 2 mps 650 mmHg 64%
    17:00 +5°C° 0 mm 2 mps 650 mmHg 73%
    18:00 +4°C° 0 mm 1 mps 650 mmHg 82%
    19:00 +2°C° 0 mm 1 mps 650 mmHg 90%
    20:00 +2°C° 0 mm 1 mps 651 mmHg 90%
    21:00 +2°C° 0 mm 1 mps 651 mmHg 90%
    22:00 +2°C° 0 mm 1 mps 651 mmHg 90%
    23:00 +2°C° 0 mm 1 mps 651 mmHg 90%

    23 October, Tuesday

    Time Temperature Precipitation Wind Pressure Humidity
    00:00 +2°C° 0 mm 1 mps 651 mmHg 89%
    01:00 +2°C° 0 mm 1 mps 651 mmHg 89%
    02:00 +2°C° 0.1 mm 1 mps 651 mmHg 90%
    03:00 +2°C° 0.1 mm 1 mps 651 mmHg 90%
    04:00 +2°C° 0.1 mm 1 mps 651 mmHg 91%
    05:00 +2°C° 0 mm 1 mps 651 mmHg 91%
    06:00 +1°C° 0 mm 2 mps 651 mmHg 92%
    07:00 +1°C° 0 mm 2 mps 652 mmHg 93%
    08:00 +1°C° 0 mm 2 mps 652 mmHg 91%
    09:00 +2°C° 0 mm 2 mps 652 mmHg 89%
    10:00 +2°C° 0 mm 2 mps 652 mmHg 86%
    11:00 +3°C° 0 mm 2 mps 652 mmHg 83%
    12:00 +3°C° 0 mm 2 mps 651 mmHg 79%
    13:00 +4°C° 0 mm 2 mps 651 mmHg 76%
    14:00 +4°C° 0 mm 2 mps 651 mmHg 76%
    15:00 +5°C° 0 mm 1 mps 651 mmHg 75%
    16:00 +5°C° 0 mm 1 mps 651 mmHg 75%
    17:00 +3°C° 0 mm 1 mps 651 mmHg 80%
    18:00 +2°C° 0 mm 1 mps 651 mmHg 85%
    19:00 +1°C° 0 mm 1 mps 651 mmHg 90%
    20:00 +1°C° 0 mm 1 mps 651 mmHg 90%
    21:00 +1°C° 0 mm 1 mps 651 mmHg 90%
    22:00 +1°C° 0 mm 1 mps 651 mmHg 90%
    23:00 +1°C° 0 mm 1 mps 651 mmHg 87%

    24 October, Wednesday

    Time Temperature Precipitation Wind Pressure Humidity
    00:00 +2°C° 0 mm 1 mps 651 mmHg 83%
    01:00 +2°C° 0 mm 1 mps 651 mmHg 80%
    02:00 +2°C° 0.1 mm 1 mps 651 mmHg 80%
    03:00 +1°C° 0.1 mm 2 mps 651 mmHg 81%
    04:00 +2°C° 0.1 mm 2 mps 651 mmHg 81%
    05:00 +2°C° 0.2 mm 2 mps 651 mmHg 83%
    06:00 +2°C° 0.2 mm 2 mps 650 mmHg 85%
    07:00 +2°C° 0.2 mm 2 mps 650 mmHg 87%
    08:00 +3°C° 0.4 mm 2 mps 650 mmHg 87%
    09:00 +3°C° 0.4 mm 2 mps 651 mmHg 87%
    10:00 +4°C° 0.4 mm 2 mps 651 mmHg 87%
    11:00 +4°C° 0.2 mm 2 mps 651 mmHg 87%
    12:00 +5°C° 0.2 mm 2 mps 651 mmHg 87%
    13:00 +5°C° 0.2 mm 2 mps 651 mmHg 87%
    14:00 +6°C° 0.1 mm 2 mps 651 mmHg 88%
    15:00 +6°C° 0.1 mm 2 mps 651 mmHg 89%
    16:00 +6°C° 0.1 mm 2 mps 651 mmHg 90%
    17:00 +6°C° 0.1 mm 2 mps 651 mmHg 92%
    18:00 +5°C° 0.1 mm 2 mps 651 mmHg 93%
    19:00 +6°C° 0.1 mm 1 mps 651 mmHg 95%
    20:00 +6°C° 0 mm 1 mps 651 mmHg 95%
    21:00 +6°C° 0 mm 1 mps 651 mmHg 95%
    22:00 +6°C° 0 mm 1 mps 651 mmHg 96%
    23:00 +6°C° 0 mm 1 mps 651 mmHg 96%
    Show more